Weather History for KDAW - January, 2013

Change the Weather History Date:

Monday, January 28, 2013

  Actual Average (KSFM) Record (KSFM)
Temperature  
Mean Temperature 18 °F -  
Max Temperature 25 °F 29 °F 50 °F (2006)
Min Temperature 12 °F 9 °F -22 °F (2003)
Degree Days  
Heating Degree Days 46    
Moisture  
Dew Point 12 °F    
Average Humidity 73    
Maximum Humidity 88    
Minimum Humidity 27    
Precipitation  
Precipitation 0.19 in - - ()
Sea Level Pressure  
Sea Level Pressure 30.17 in    
Wind  
Wind Speed 2 mph (North)    
Max Wind Speed 7 mph    
Max Gust Speed -    
Visibility 4 miles    
Events Fog , Snow    
Averages and records for this station are not official NWS values.
T = Trace of Precipitation, MM = Missing Value Source: NWS Daily Summary

Daily Weather History Graph

Daily Weather History Graph

Search for Another Location

Airport or City:

Trip Planner

Search our weather history database for the weather conditions in past years. The results will help you decide how hot, cold, wet, or windy it might be!

Date:

Astronomy

Jan. 28, 2013 Rise Set
Actual Time 7:03 AM EST 4:50 PM EST
Civil Twilight 6:32 AM EST 5:21 PM EST
Nautical Twilight 5:58 AM EST 5:55 PM EST
Astronomical Twilight 5:24 AM EST 6:29 PM EST
Moon 6:47 PM EST (1/28) 7:23 AM EST (1/28)
Length of Visible Light 10h 48m
Length of Day
9h 47m
Full, 98% of the Moon is Illuminated
Jan 28
Full
Feb 3
Last Quarter
Feb 10
New
Feb 17
First Quarter
Feb 25
Full

Hourly Weather History & Observations

Time (EST) Temp. Windchill Dew Point Humidity Pressure Visibility Wind Dir Wind Speed Gust Speed Precip Events Conditions
12:51 AM 16.0 °F 10.4 °F -6.0 °F 38% 30.39 in 10.0 mi WNW 3.5 mph - N/A   Overcast
1:51 AM 15.1 °F - -5.1 °F 41% 30.40 in 10.0 mi Calm Calm - N/A   Overcast
2:51 AM 17.1 °F - -8.0 °F 33% 30.40 in 10.0 mi Calm Calm - N/A   Overcast
3:51 AM 12.9 °F 6.9 °F -4.0 °F 47% 30.39 in 10.0 mi SW 3.5 mph - N/A   Clear
4:51 AM 12.0 °F - -2.0 °F 53% 30.38 in 10.0 mi Calm Calm - N/A   Clear
5:51 AM 12.9 °F - -6.0 °F 43% 30.38 in 10.0 mi Calm Calm - N/A   Clear
6:51 AM 12.0 °F - -0.9 °F 56% 30.38 in 10.0 mi Calm Calm - N/A   Clear
7:51 AM 15.1 °F - 1.0 °F 54% 30.38 in 10.0 mi Calm Calm - N/A   Mostly Cloudy
8:51 AM 17.1 °F - -0.0 °F 47% 30.37 in 10.0 mi Calm Calm - N/A   Overcast
9:51 AM 19.9 °F - -2.9 °F 37% 30.37 in 10.0 mi Calm Calm - N/A   Overcast
10:51 AM 23.0 °F - -4.0 °F 31% 30.35 in 10.0 mi Calm Calm - N/A   Overcast
11:51 AM 24.1 °F - -4.0 °F 29% 30.30 in 10.0 mi Calm Calm - N/A   Overcast
12:51 PM 25.0 °F - -5.1 °F 27% 30.26 in 10.0 mi North - - N/A   Overcast
1:51 PM 25.0 °F 18.1 °F 3.0 °F 39% 30.22 in 10.0 mi SSE 5.8 mph - N/A   Overcast
2:51 PM 24.1 °F - 14.0 °F 65% 30.20 in 2.5 mi Calm Calm - 0.00 in Snow Light Snow
3:03 PM 23.0 °F 18.4 °F 14.0 °F 68% 30.18 in 1.5 mi ESE 3.5 mph - 0.00 in Snow Light Snow
3:11 PM 21.2 °F 14.9 °F 15.8 °F 80% 30.18 in 1.2 mi ESE 4.6 mph - 0.00 in Snow Light Snow
3:38 PM 21.2 °F 16.4 °F 17.6 °F 86% 30.18 in 0.5 mi ESE 3.5 mph - 0.01 in Snow Snow
3:48 PM 21.2 °F 16.4 °F 17.6 °F 86% 30.18 in 0.5 mi ESE 3.5 mph - 0.01 in Fog , Snow Snow
3:51 PM 21.0 °F - 17.1 °F 85% 30.19 in 0.2 mi Calm Calm - 0.02 in Fog , Snow Heavy Snow
4:01 PM 21.2 °F - 17.6 °F 86% 30.17 in 0.2 mi Calm Calm - 0.01 in Fog , Snow Heavy Snow
4:07 PM 21.2 °F - 17.6 °F 86% 30.17 in 0.5 mi Calm Calm - 0.01 in Fog , Snow Snow
4:25 PM 21.2 °F 16.4 °F 17.6 °F 86% 30.16 in 0.8 mi ESE 3.5 mph - 0.02 in Snow Light Snow
4:34 PM 21.2 °F 14.9 °F 17.6 °F 86% 30.16 in 1.2 mi ESE 4.6 mph - 0.02 in Snow Light Snow
4:51 PM 21.0 °F - 17.1 °F 85% 30.17 in 0.8 mi Calm Calm - 0.02 in Snow Light Snow
5:05 PM 21.2 °F - 17.6 °F 86% 30.15 in 1.0 mi Calm Calm - 0.01 in Snow Light Snow
5:51 PM 21.0 °F - 18.0 °F 88% 30.14 in 2.5 mi Calm Calm - 0.03 in Snow Light Snow
5:56 PM 21.2 °F 16.4 °F 17.6 °F 86% 30.12 in 3.0 mi NNE 3.5 mph - 0.00 in Snow Light Snow
6:51 PM 21.0 °F 16.2 °F 17.1 °F 85% 30.12 in 3.0 mi North 3.5 mph - 0.00 in Snow Light Snow
6:56 PM 21.2 °F 14.9 °F 17.6 °F 86% 30.10 in 2.5 mi NNW 4.6 mph - 0.00 in Snow Light Snow
7:06 PM 21.2 °F 16.4 °F 17.6 °F 86% 30.09 in 3.0 mi North 3.5 mph - 0.00 in Snow Light Snow
7:16 PM 21.2 °F 14.9 °F 17.6 °F 86% 30.10 in 2.0 mi NNW 4.6 mph - 0.01 in Snow Light Snow
7:26 PM 21.2 °F 14.9 °F 17.6 °F 86% 30.10 in 1.5 mi NNW 4.6 mph - 0.01 in Snow Light Snow
7:51 PM 21.0 °F 16.2 °F 18.0 °F 88% 30.09 in 1.0 mi NNW 3.5 mph - 0.03 in Snow Light Snow
7:58 PM 21.2 °F 14.9 °F 17.6 °F 86% 30.08 in 0.8 mi NNW 4.6 mph - 0.01 in Snow Light Snow
8:10 PM 21.2 °F 14.9 °F 17.6 °F 86% 30.07 in 0.2 mi NNW 4.6 mph - 0.04 in Fog , Snow Heavy Snow
8:25 PM 21.2 °F 14.9 °F 17.6 °F 86% 30.07 in 0.5 mi NNW 4.6 mph - 0.07 in Fog , Snow Snow
8:41 PM 21.2 °F 13.6 °F 17.6 °F 86% 30.06 in 1.0 mi North 5.8 mph - 0.07 in Snow Light Snow
8:51 PM 21.0 °F 14.6 °F 18.0 °F 88% 30.07 in 1.5 mi North 4.6 mph - 0.07 in Snow Light Snow
9:02 PM 21.2 °F 14.9 °F 17.6 °F 86% 30.05 in 3.0 mi North 4.6 mph - 0.00 in Snow Light Snow
9:09 PM 21.2 °F 16.4 °F 17.6 °F 86% 30.05 in 4.0 mi North 3.5 mph - 0.01 in Snow Light Snow
9:29 PM 21.2 °F 14.9 °F 17.6 °F 86% 30.05 in 10.0 mi NNW 4.6 mph - 0.01 in   Overcast
9:51 PM 21.0 °F 13.4 °F 18.0 °F 88% 30.05 in 10.0 mi NNW 5.8 mph - 0.01 in   Overcast
10:19 PM 21.2 °F 16.4 °F 17.6 °F 86% 30.03 in 10.0 mi North 3.5 mph - N/A   Overcast
10:51 PM 21.0 °F 14.6 °F 18.0 °F 88% 30.04 in 7.0 mi NNW 4.6 mph - N/A   Overcast
11:03 PM 21.2 °F 13.6 °F 17.6 °F 86% 30.04 in 2.5 mi NNW 5.8 mph - 0.00 in Snow Light Snow
11:18 PM 21.2 °F 16.4 °F 17.6 °F 86% 30.03 in 1.2 mi North 3.5 mph - 0.00 in Snow Light Snow
11:26 PM 21.2 °F 13.6 °F 17.6 °F 86% 30.03 in 1.8 mi North 5.8 mph - 0.00 in Snow Light Snow
11:35 PM 21.2 °F 12.6 °F 17.6 °F 86% 30.03 in 2.0 mi North 6.9 mph - 0.01 in Snow Light Snow
11:47 PM 21.2 °F 13.6 °F 17.6 °F 86% 30.03 in 1.5 mi North 5.8 mph - 0.01 in Snow Light Snow
11:51 PM 21.0 °F 14.6 °F 18.0 °F 88% 30.03 in 1.2 mi North 4.6 mph - 0.01 in Snow Light Snow